Olive Branch, MS

10:05 AM CST on February 20, 2018 (GMT -0600)
Olive Branch

Weather History for KOLV - August, 2013

Change the Weather History Date:

Saturday, August 24, 2013

  Actual Average (KMEM) Record (KMEM)
Temperature  
Mean Temperature 81 °F -  
Max Temperature 91 °F 90 °F 100 °F (1943)
Min Temperature 71 °F 71 °F 53 °F (1891)
Cooling Degree Days 16    
Growing Degree Days 31 (Base 50)    
Moisture  
Dew Point 74 °F    
Average Humidity 88    
Maximum Humidity 100    
Minimum Humidity 52    
Precipitation  
Precipitation 0.00 in - - ()
Sea Level Pressure  
Sea Level Pressure 30.10 in    
Wind  
Wind Speed 2 mph (ENE)    
Max Wind Speed 10 mph    
Max Gust Speed -    
Visibility 8 miles    
Events      
Averages and records for this station are not official NWS values.
T = Trace of Precipitation, MM = Missing Value Source: NWS Daily Summary

Daily Weather History Graph

Daily Weather History Graph

Search for Another Location

Airport or City:

Trip Planner

Search our weather history database for the weather conditions in past years. The results will help you decide how hot, cold, wet, or windy it might be!

Date:

Astronomy

Aug. 24, 2013 Rise Set
Actual Time 6:26 AM CDT 7:36 PM CDT
Civil Twilight 5:59 AM CDT 8:02 PM CDT
Nautical Twilight 5:28 AM CDT 8:33 PM CDT
Astronomical Twilight 4:56 AM CDT 9:05 PM CDT
Moon 9:43 PM CDT (8/24) 10:14 AM CDT (8/24)
Length of Visible Light 14h 02m
Length of Day
13h 09m
Waning Gibbous, 84% of the Moon is Illuminated
Aug 24
Waning Gibbous
Aug 28
Last Quarter
Sep 5
New
Sep 12
First Quarter
Sep 19
Full

Hourly Weather History & Observations

Time (CDT) Temp. Heat Index Dew Point Humidity Pressure Visibility Wind Dir Wind Speed Gust Speed Precip Events Conditions
12:15 AM 77.0 °F - 75.2 °F 94% 30.05 in 8.0 mi Calm Calm - 0.00 in   Clear
12:35 AM 77.0 °F - 75.2 °F 94% 30.06 in 10.0 mi Calm Calm - 0.00 in   Clear
12:55 AM 75.2 °F - 75.2 °F 100% 30.06 in 8.0 mi Calm Calm - 0.00 in   Clear
1:15 AM 75.2 °F - 75.2 °F 100% 30.06 in 8.0 mi Calm Calm - 0.00 in   Clear
1:35 AM 75.2 °F - 75.2 °F 100% 30.06 in 10.0 mi Calm Calm - 0.00 in   Clear
1:55 AM 75.2 °F - 75.2 °F 100% 30.06 in 8.0 mi Calm Calm - 0.00 in   Clear
2:15 AM 75.2 °F - 75.2 °F 100% 30.07 in 8.0 mi East 3.5 mph - 0.00 in   Clear
2:35 AM 73.4 °F - 73.4 °F 100% 30.07 in 9.0 mi Calm Calm - 0.00 in   Clear
2:55 AM 73.4 °F - 73.4 °F 100% 30.07 in 9.0 mi NNE 4.6 mph - 0.00 in   Clear
3:15 AM 73.4 °F - 73.4 °F 100% 30.07 in 8.0 mi NE 5.8 mph - 0.00 in   Clear
3:35 AM 73.4 °F - 73.4 °F 100% 30.07 in 9.0 mi Calm Calm - 0.00 in   Clear
3:55 AM 73.4 °F - 73.4 °F 100% 30.07 in 7.0 mi Calm Calm - 0.00 in   Clear
4:15 AM 73.4 °F - 73.4 °F 100% 30.08 in 7.0 mi Calm Calm - 0.00 in   Clear
4:35 AM 73.4 °F - 73.4 °F 100% 30.07 in 8.0 mi Calm Calm - 0.00 in   Clear
4:55 AM 71.6 °F - 71.6 °F 100% 30.08 in 5.0 mi Calm Calm - 0.00 in   Clear
5:15 AM 71.6 °F - 71.6 °F 100% 30.08 in 5.0 mi Calm Calm - 0.00 in   Clear
5:35 AM 71.6 °F - 71.6 °F 100% 30.09 in 5.0 mi Calm Calm - 0.00 in   Clear
5:55 AM 71.6 °F - 71.6 °F 100% 30.09 in 7.0 mi Calm Calm - 0.00 in   Clear
6:15 AM 71.6 °F - 71.6 °F 100% 30.10 in 6.0 mi Calm Calm - 0.00 in   Clear
6:35 AM 71.6 °F - 71.6 °F 100% 30.11 in 5.0 mi Calm Calm - 0.00 in   Clear
6:50 AM 71.6 °F - 71.6 °F 100% 30.12 in 5.0 mi Calm Calm - N/A   Partly Cloudy
7:50 AM 73.4 °F - 73.4 °F 100% 30.14 in 6.0 mi NE 6.9 mph - N/A   Partly Cloudy
8:50 AM 78.8 °F - 77.0 °F 94% 30.14 in 9.0 mi Calm Calm - N/A   Clear
10:50 AM 84.2 °F 96.1 °F 78.8 °F 84% 30.16 in 10.0 mi ENE 8.1 mph - N/A   Scattered Clouds
11:50 AM 87.8 °F 95.6 °F 73.4 °F 62% 30.14 in 10.0 mi East 4.6 mph - N/A   Mostly Cloudy
12:50 PM 89.6 °F 96.2 °F 71.6 °F 55% 30.13 in 10.0 mi ENE 8.1 mph - N/A   Mostly Cloudy
1:50 PM 91.4 °F 98.4 °F 71.6 °F 52% 30.12 in 10.0 mi ENE 10.4 mph - N/A   Mostly Cloudy
2:50 PM 91.4 °F 100.1 °F 73.4 °F 55% 30.10 in 10.0 mi ENE 8.1 mph - N/A   Mostly Cloudy
3:50 PM 89.6 °F 96.2 °F 71.6 °F 55% 30.10 in 10.0 mi ENE 10.4 mph - N/A   Mostly Cloudy
4:50 PM 89.6 °F 96.2 °F 71.6 °F 55% 30.09 in 10.0 mi ENE 9.2 mph - N/A   Mostly Cloudy
5:50 PM 87.8 °F 93.8 °F 71.6 °F 58% 30.10 in 10.0 mi East 8.1 mph - N/A   Mostly Cloudy
6:50 PM 86.0 °F 93.4 °F 73.4 °F 66% 30.10 in 10.0 mi ENE 4.6 mph - N/A   Mostly Cloudy
7:50 PM 82.4 °F 89.5 °F 75.2 °F 79% 30.11 in 10.0 mi SSE 4.6 mph - N/A   Mostly Cloudy
8:55 PM 80.6 °F 86.2 °F 75.2 °F 84% 30.13 in 9.0 mi Calm Calm - 0.00 in   Mostly Cloudy
9:15 PM 80.6 °F 86.2 °F 75.2 °F 84% 30.14 in 10.0 mi Calm Calm - 0.00 in   Partly Cloudy
9:35 PM 80.6 °F 86.2 °F 75.2 °F 84% 30.15 in 9.0 mi Calm Calm - 0.00 in   Clear
9:55 PM 80.6 °F 86.2 °F 75.2 °F 84% 30.15 in 9.0 mi Calm Calm - 0.00 in   Clear
10:15 PM 80.6 °F 86.2 °F 75.2 °F 84% 30.15 in 10.0 mi Calm Calm - 0.00 in   Clear
10:35 PM 78.8 °F - 75.2 °F 89% 30.15 in 10.0 mi Calm Calm - 0.00 in   Clear
10:55 PM 78.8 °F - 75.2 °F 89% 30.15 in 8.0 mi ENE 3.5 mph - 0.00 in   Clear
11:15 PM 77.0 °F - 75.2 °F 94% 30.15 in 7.0 mi Calm Calm - 0.00 in   Clear
11:35 PM 77.0 °F - 75.2 °F 94% 30.16 in 9.0 mi Calm Calm - 0.00 in   Clear
11:55 PM 75.2 °F - 75.2 °F 100% 30.16 in 8.0 mi ENE 3.5 mph - 0.00 in   Clear